Погода в Уэстоне-сьюпер-Мэре

Великобритания     51°20′44″N   2°58′32″W
темп.,
°C
ветер,
м/с
пор.,
м/с
влажн.,
%
обл.,
%
осадки,
мм/ч
давл.,
гПа
погр.,
м
17 мая, вт
вт1701:00+11юв589487 0.0 1017193
04:00+11ююв511935 0.0 1017246
07:00+13ююв599016 0.0 1016205
10:00+17ю71074100 0.0 1016559
13:00+19ююв71266100 0.0 1015832
16:00+19ююв101675100 0.2 1013870
19:00+13зсз899394 0.8 1014508
22:00+11ююз13915 0.0 1017114
18 мая, ср
ср1801:00+10ю48925 0.0 1018204
04:00+11ю5119510 0.0 1018378
07:00+12ю3891100 0.0 1019278
10:00+15ю6874100 0.0 1020626
13:00+16ю7967100 0.0 1019640
16:00+16ю7968100 0.0 1018565
19:00+12ю51191100 0.9 1018395
22:00+12ююв4893100 0.1 1018205
19 мая, чт
чт1901:00+11ююз2292100 0.1 101864
04:00+11з129177 0.0 101898
07:00+12з2388100 0.0 1019204
10:00+13з23791 0.0 1020508
13:00+14сз337466 0.0 1020607
16:00+14з3375100 0.0 1020359
19:00+14з3474100 0.1 1020157
22:00+12сз1180100 0.0 102013
20 мая, пт
пт2001:00+11ю2284100 0.0 102038
04:00+11ююв3484100 0.0 1019132
07:00+12ю598734 0.1 1019391
10:00+15юз687256 0.0 1018665
13:00+16зюз61069100 0.3 1017962
16:00+16зюз7117312 0.7 1017857
19:00+15зюз81383100 1.3 1017746
22:00+13зюз7138784 0.0 1018579
21 мая, сб
сб2101:00+12зюз61188100 0.0 1019492
04:00+11зюз5990100 0.0 1018333
07:00+12юз488964 0.1 1019499
10:00+14з4676100 0.0 1020660
13:00+15зсз457795 0.1 1020456
16:00+14зсз4575100 0.0 1019351
19:00+14з3576100 0.0 1019240
22:00+12з1184100 0.0 101913